Location: Central Springs High School
(43.2862°N, 93.1962°W)
Time: 08:55:39
(UTC+00:00)

BlueWalker 3 - Pass Details

Date: 19 October 2024
Orbit: 470 x 482 km, 53.2° (Epoch: 03 November)

Event Time Altitude Azimuth Distance (km) Brightness Sun altitude
Exits shadow 11:14:32 17° 321° (NW) 1,285 3.6 -14.8°
Maximum altitude 11:17:08 43° 28° (NNE) 669 2.7 -14.4°
Drops below altitude 10° 11:20:40 10° 102° (ESE) 1,631 5.9 -13.7°
Sets 11:22:53 0° 109° (ESE) 2,507 7.0 -13.3°
